Hovedside
METAR-TAF:

METAR-TAF

Lufthavner :

Hemavan flyplass

Hemavan, Sverige

breddegrad: 65-48-22N, lengdegrad: 015-04-58E, høyde over havet: 458 m

Gjeldene værobservasjon

Denne rapporten ble laget for 11 minutter siden, klokken 20:20 UTC
Vind 12 kt fra Sørøst, skiftende mellom Øst og Sør-sørøst
Temperatur -5°C
Luftfuktighet 86%
Trykk 1022 hPa
Sikt 10 km eller mer
lett snø

METAR: ESUT 182020Z AUTO 13012KT 090V160 9999 -SN BKN012/// OVC015/// M05/M07 Q1022

Tid: 21:31 (20:31 UTC)


TAF: fraværende

Værobservasjoner og værvarsel for over 4000 flyplasser (METAR- og TAF-rapporter).

Tilgjengelige stasjoner er representert av de røde og gule prikkene på kartet.

Hold musepekeren over prikken for å se navnet på stasjonen.

Klikk så for å se værobservasjoner og -varsler.

For å forandre kartet kan du klikke på den grønne knappen med svart kryss for å zoome inn, på den grønne knappen med strek for å zoome ut, eller på de grønne pilene for å se tilstøtende kart.


METAR-TAF: